Temp
20 20 20 20 21 20 20 20 19 17 17 16 16 15 15 15 15 16 15 14 15 16
20 20 21 21 20 20 20 20 18 17 17 17 16 16 15 15 15 16 15 15 15 15
20 20 20 20 20 20 20 19 19 17 19 19 17 16 17 15 15 15 15 15 16 15
20 20 20 20 20 19 19 18 19 22 21 19 17 15 15 15 16 16 15 15 15 15
21 20 20 19 19 20 21 22 23 23 21 17 18 16 17 15 16 15 15 15 15 15
21 21 20 20 20 22 22 23 23 22 20 20 20 18 18 17 15 15 16 15 15 15
22 21 20 20 22 22 24 24 23 21 21 20 19 19 16 17 15 15 15 15 15 15
22 21 20 20 21 22 24 25 24 22 20 20 17 17 16 15 15 15 15 15 15 15
22 21 20 20 20 20 21 22 21 21 21 20 17 17 17 17 15 15 15 14 14 15
22 22 21 20 20 20 20 19 18 21 20 17 16 16 18 17 15 15 15 14 15 15
22 21 20 20 21 19 19 19 18 18 17 15 15 15 17 17 15 15 15 14 14 14
21 21 21 21 20 19 18 17 17 16 16 15 14 14 15 15 15 15 14 14 14 14
21 22 22 21 20 17 16 17 15 15 15 15 15 14 14 14 14 15 15 15 14 15
20 20 20 18 17 16 16 16 15 15 15 15 15 14 14 15 15 15 15 14 14 14
Height
1532 1538 1541 1543 1547 1549 1551 1552 1551 1552 1554 1554 1555 1556 1555 1557 1559 1560 1561 1561 1561 1562
1527 1531 1536 1540 1541 1544 1545 1546 1547 1547 1545 1546 1548 1551 1553 1553 1555 1556 1558 1559 1559 1560
1521 1525 1530 1534 1536 1538 1539 1539 1540 1541 1541 1540 1542 1542 1543 1549 1552 1553 1555 1557 1558 1558
1515 1520 1523 1526 1528 1530 1531 1531 1532 1531 1531 1533 1538 1542 1542 1545 1550 1552 1552 1553 1554 1555
1508 1512 1514 1517 1519 1520 1522 1522 1522 1526 1527 1530 1531 1537 1535 1541 1542 1545 1546 1547 1548 1550
1499 1502 1505 1507 1509 1511 1512 1515 1516 1520 1521 1523 1525 1530 1531 1533 1539 1541 1542 1544 1546 1546
1489 1493 1497 1498 1499 1502 1505 1507 1510 1512 1515 1519 1521 1525 1528 1528 1533 1537 1539 1540 1542 1542
1482 1487 1490 1490 1490 1495 1498 1500 1504 1506 1509 1514 1518 1520 1523 1523 1527 1532 1534 1535 1537 1537
1473 1477 1479 1481 1484 1489 1493 1498 1501 1503 1506 1505 1510 1515 1516 1518 1522 1526 1529 1530 1530 1531
1465 1468 1470 1476 1479 1482 1486 1491 1493 1493 1496 1500 1504 1508 1510 1513 1517 1521 1524 1524 1525 1524
1457 1462 1466 1469 1470 1473 1478 1482 1488 1487 1490 1496 1500 1503 1505 1506 1512 1514 1516 1519 1520 1520
1452 1455 1459 1463 1466 1469 1471 1474 1477 1484 1489 1487 1491 1496 1498 1500 1505 1508 1511 1513 1513 1513
1448 1452 1455 1459 1463 1467 1472 1476 1477 1479 1483 1488 1489 1490 1493 1495 1499 1504 1505 1507 1505 1506
1444 1448 1452 1456 1460 1465 1469 1471 1472 1477 1478 1482 1483 1484 1487 1492 1495 1499 1500 1500 1500 1502
Wind_Speed
25 22 21 20 15 13 12 11 12 12 12 11 10 8 8 7 5 6 5 6 6 6
27 26 23 21 20 15 16 15 15 16 15 13 13 12 10 8 10 10 9 9 10 9
28 27 26 23 22 21 20 21 18 17 15 15 15 16 13 12 10 11 9 9 10 12
29 28 27 29 29 28 28 25 26 21 19 18 16 15 12 11 13 10 9 10 13 13
33 32 32 32 33 35 33 32 28 25 23 21 15 16 11 13 12 13 12 14 14 13
35 37 37 37 38 37 38 36 34 30 30 23 16 18 14 14 14 14 14 13 14 13
40 39 39 42 45 42 41 40 39 37 35 29 20 19 15 14 15 16 15 14 15 15
38 37 40 43 47 45 43 44 43 43 38 32 23 18 16 17 18 17 17 16 15 15
37 39 43 46 47 45 46 46 44 43 40 40 28 23 20 23 19 20 20 18 17 19
39 41 44 43 42 41 43 48 43 51 47 31 25 25 22 24 23 21 19 21 22 19
40 41 39 36 33 31 32 45 47 46 35 23 21 25 24 25 26 26 25 21 19 19
40 37 32 31 27 24 26 34 40 40 33 27 25 25 26 24 30 25 23 21 21 22
32 30 27 23 22 20 22 23 24 22 25 25 23 24 25 26 25 25 23 24 27 25
28 27 23 21 19 18 20 19 23 20 21 22 22 22 20 20 21 21 20 19 25 24
Wind_Direction
210 208 212 218 208 215 210 213 215 215 216 218 220 217 221 210 218 243 252 249 242 243
212 204 212 213 220 210 212 215 207 207 206 214 210 216 226 207 231 224 244 249 256 250
210 215 203 211 209 212 220 210 218 211 222 221 215 212 220 215 232 240 246 254 257 254
209 209 214 205 213 211 213 224 220 233 226 219 209 217 220 210 211 245 258 259 244 249
210 207 210 210 210 222 226 233 236 236 220 209 216 216 219 223 218 231 233 241 241 242
211 213 208 215 217 226 226 230 236 230 222 218 218 223 239 233 227 228 231 239 240 241
214 210 209 219 229 231 229 234 234 234 228 225 229 229 226 234 228 230 239 240 239 241
214 212 212 218 233 235 233 234 235 236 233 230 226 228 228 222 221 231 242 236 241 254
214 213 214 222 230 234 233 232 232 233 237 241 230 236 251 238 225 229 237 239 239 240
210 221 228 228 233 241 234 230 229 238 240 236 235 237 260 234 225 231 243 250 252 254
213 223 229 233 237 236 229 230 231 237 231 230 239 238 251 243 227 236 237 242 250 254
212 220 225 228 225 224 220 220 228 230 229 235 245 242 249 248 231 243 251 250 246 256
210 212 214 217 219 216 219 224 219 221 226 236 238 248 255 242 239 248 249 251 255 265
199 202 205 206 210 214 210 219 221 224 221 236 244 248 233 230 240 241 252 250 257 271